SCP
0 0 0 0 0 0 0 0 0 0 0 0 0 0 0 0 0 0 0 0 1 2 3 3 3 3 4 4 4 3 3 3 3 3 2 1 1 1 1 1 1 1 1 1 1 1 1 1 1
0 0 0 0 0 0 0 0 0 0 0 0 0 0 0 0 0 0 0 0 1 2 3 3 3 3 4 4 4 3 3 3 3 3 2 2 1 1 1 1 1 1 1 1 1 1 1 1 1
0 0 0 0 0 0 0 0 0 0 0 0 0 0 0 0 0 0 0 1 1 2 3 3 3 3 3 4 4 3 3 3 3 3 2 2 1 1 1 2 2 1 1 1 1 1 1 1 1
0 0 0 0 0 0 0 0 0 0 0 1 1 0 0 0 0 0 1 1 1 2 3 3 3 3 3 4 4 4 3 3 3 3 2 2 1 1 1 2 2 1 1 1 1 1 1 1 1
0 0 0 0 0 0 0 0 0 0 0 1 1 1 1 1 1 1 1 1 2 3 3 3 3 4 4 4 4 4 3 3 3 3 2 2 1 1 1 2 2 1 1 1 1 1 1 1 1
0 0 0 0 0 0 0 0 0 0 1 1 1 1 1 1 1 1 1 1 2 3 4 4 4 4 4 4 4 4 3 3 3 3 2 2 2 2 2 2 2 1 1 1 1 1 1 1 1
0 0 0 0 0 0 0 0 0 0 1 1 1 1 1 1 1 1 1 1 2 3 4 4 4 5 4 4 4 3 3 2 2 2 2 2 2 2 2 2 2 1 1 1 1 1 1 1 1
0 0 0 0 0 0 0 0 0 0 1 1 1 1 1 1 1 1 1 2 2 2 3 3 4 4 4 3 3 3 2 2 2 2 2 1 1 1 2 2 2 1 1 1 1 1 1 1 1
0 0 0 0 0 0 0 0 1 1 1 1 1 1 1 1 2 2 2 2 2 2 2 2 3 3 3 3 3 3 2 2 1 1 1 1 1 1 1 1 1 1 1 1 1 1 1 1 0
0 0 0 0 0 0 0 0 0 0 1 1 1 1 1 2 2 2 2 2 2 2 2 2 2 3 3 3 3 2 2 2 1 1 1 1 0 0 0 1 1 0 1 1 1 1 1 0 0
0 0 0 0 0 0 0 0 0 0 0 1 1 1 1 2 2 2 2 2 2 2 2 2 2 2 3 3 3 3 2 2 1 1 1 0 0 0 0 0 0 0 0 0 0 0 0 0 0
0 0 0 0 0 0 0 0 0 0 0 0 0 1 1 2 2 2 2 2 2 2 2 2 2 2 2 2 2 2 2 1 1 1 1 0 0 0 0 0 0 0 0 0 0 0 0 0 0
0 0 0 0 0 0 0 0 0 0 0 0 0 0 1 2 2 2 2 2 2 3 2 2 2 3 2 2 2 2 2 1 1 1 1 1 0 0 0 0 0 0 0 0 0 0 0 0 0
0 0 0 0 0 0 0 0 0 0 0 0 0 0 1 1 1 1 1 1 2 2 2 2 2 2 2 2 1 1 1 1 1 1 1 1 1 0 0 0 0 0 0 0 0 0 0 0 0
0 0 0 0 0 0 0 0 0 0 0 0 0 0 0 1 1 1 1 1 1 1 1 1 1 1 1 1 1 0 0 1 1 1 1 1 1 0 0 0 0 0 0 0 0 0 0 0 0
0 0 0 0 0 0 0 0 0 0 0 0 0 0 0 0 0 0 1 1 1 1 1 1 1 1 1 1 0 0 0 0 0 0 0 0 0 0 0 0 0 0 0 0 0 0 0 0 0
0 0 0 0 0 0 0 0 0 0 0 0 0 0 0 0 0 0 0 0 0 1 1 1 1 1 0 0 0 0 0 0 0 0 0 0 0 0 0 0 0 0 0 0 0 0 0 0 0
0 0 0 0 0 0 0 0 0 0 0 0 0 0 0 0 0 0 0 0 0 0 0 1 1 1 0 0 0 0 0 0 0 0 0 0 0 0 0 0 0 0 0 0 0 0 0 0 0
0 0 0 0 0 0 0 0 0 0 0 0 0 0 0 0 0 0 0 0 0 0 0 0 1 1 0 0 0 0 0 0 1 1 1 1 1 1 1 0 0 0 1 1 0 0 0 0 0
0 0 0 0 0 0 0 0 0 0 0 0 0 0 0 0 0 0 0 0 0 0 0 0 0 0 0 0 0 0 0 1 1 1 1 1 1 1 1 1 1 1 1 1 1 1 0 0 0
0 0 0 0 0 0 0 0 0 0 0 0 0 0 0 0 0 0 0 0 0 0 0 0 0 0 0 0 0 0 0 0 1 1 1 1 1 1 1 1 1 1 1 1 1 1 0 0 0
0 0 0 0 0 0 0 0 0 0 0 0 0 0 0 0 0 0 0 0 0 0 0 0 0 0 0 0 0 0 0 0 0 0 0 1 1 1 1 1 1 1 1 1 1 0 0 0 0
0 0 0 0 0 0 0 0 0 0 0 0 0 0 0 0 0 0 0 0 0 0 0 0 0 0 0 0 0 0 0 0 0 0 0 0 0 0 1 1 1 1 1 1 0 0 0 0 0
0 0 0 0 0 0 0 0 0 0 0 0 0 0 0 0 0 0 0 0 0 0 0 0 0 0 0 0 0 0 0 0 0 0 0 0 0 0 0 0 0 0 0 0 0 0 0 0 0
0 0 0 0 0 0 0 0 0 0 0 0 0 0 0 0 0 0 0 0 0 0 0 0 0 0 0 0 0 0 0 0 0 0 0 0 0 0 0 0 0 0 0 0 0 0 0 0 0
0 0 0 0 0 0 0 0 0 0 0 0 0 0 0 0 0 0 0 0 0 0 0 0 0 0 0 0 0 0 0 0 0 0 0 0 0 0 0 0 0 0 0 0 0 0 0 0 0
0 0 0 0 0 0 0 0 0 0 0 0 0 0 0 0 0 0 0 0 0 0 0 0 0 0 1 0 0 0 0 0 0 0 0 0 0 0 0 0 0 0 0 0 0 0 0 0 0
0 0 0 0 0 0 0 0 0 0 0 0 0 0 0 0 0 0 0 0 0 0 0 0 0 0 1 1 0 0 0 0 0 0 0 0 0 0 0 0 0 0 0 0 0 0 0 0 0
0 0 0 0 0 0 0 0 0 0 0 0 0 0 0 0 0 0 0 0 0 0 0 0 0 0 0 1 0 0 0 0 0 0 0 0 0 0 0 0 0 0 0 0 0 0 0 0 0
0 0 0 0 0 0 0 0 0 0 0 0 0 0 0 0 0 0 0 0 0 0 0 0 0 0 0 0 0 0 0 0 0 0 0 0 0 0 0 0 0 0 0 0 0 0 0 0 0
Wind_Speed
4 3 3 4 6 3 4 5 2 2 2 1 1 3 5 5 4 3 0 2 3 4 3 5 7 7 8 8 8 8 8 7 7 8 8 8 9 9 9 9 9 8 8 9 9 9 9 9 9
1 2 4 5 4 2 5 4 4 4 3 2 1 2 2 1 0 1 1 1 3 4 3 4 7 8 8 8 8 8 7 7 7 7 7 8 8 8 9 8 8 8 8 8 8 8 8 8 8
2 3 4 4 4 6 5 3 5 2 2 2 1 1 2 2 1 2 1 3 4 4 3 4 8 8 9 8 8 8 7 7 7 7 7 7 7 8 8 8 7 7 7 7 7 7 8 7 8
3 4 5 3 6 5 4 3 2 1 1 1 3 1 1 0 1 2 3 4 5 4 3 4 8 8 8 8 7 7 7 7 7 7 7 7 7 7 7 7 7 7 6 6 7 7 7 7 7
4 4 2 2 6 4 3 3 2 2 1 1 3 2 1 2 1 3 4 5 5 4 3 4 8 9 8 7 7 7 6 6 6 7 6 6 6 6 6 6 6 6 6 6 6 6 7 7 6
4 4 3 5 6 4 3 3 2 2 2 1 3 2 2 1 2 3 4 4 4 4 3 3 7 8 8 7 7 6 6 6 6 6 6 6 6 5 5 6 6 5 6 6 6 6 6 6 6
5 4 4 4 3 4 4 3 3 3 3 4 4 4 2 0 2 3 4 4 4 3 3 2 3 5 6 7 7 6 6 6 6 6 6 6 6 6 5 5 5 5 5 5 5 5 6 6 6
4 4 2 3 4 5 3 1 2 4 4 1 4 5 4 3 4 5 5 4 3 3 3 2 3 3 3 3 6 7 6 6 6 6 6 6 5 5 5 4 5 5 5 4 4 4 5 5 5
4 3 4 6 6 4 1 1 1 0 2 1 1 2 2 6 6 6 4 3 2 2 2 2 3 3 3 3 4 5 5 6 6 6 8 7 4 3 3 4 5 4 4 4 4 4 4 4 4
4 4 7 5 4 2 1 2 2 1 0 1 1 1 3 7 7 7 6 6 5 4 2 2 3 3 3 3 3 2 3 3 4 3 4 3 3 3 3 4 5 5 4 4 4 4 4 3 2
4 6 5 4 3 2 2 2 2 3 4 5 5 4 5 6 7 7 7 6 6 5 4 3 2 3 3 2 3 2 2 2 3 3 4 3 3 2 3 2 3 3 4 3 3 3 2 2 1
3 3 3 3 2 2 3 2 2 5 8 5 6 6 7 8 9 9 8 6 5 4 4 3 3 3 3 3 3 3 2 2 2 2 3 3 2 2 2 1 1 2 1 1 1 1 2 2 2
3 3 3 3 2 2 2 3 4 6 6 3 3 5 8 9 8 6 5 5 4 5 4 4 4 4 3 3 3 3 2 2 2 2 2 3 2 2 1 1 1 1 1 1 1 1 1 1 1
3 2 3 3 3 2 4 5 3 8 3 2 4 6 8 9 8 6 5 6 6 6 5 4 4 4 4 3 3 3 2 2 2 2 2 3 2 2 2 1 1 1 1 1 1 1 1 0 0
0 1 3 3 3 3 2 5 8 7 3 4 5 6 6 7 7 8 8 8 7 6 5 5 4 4 4 4 4 3 2 2 2 2 2 2 2 2 2 1 1 0 0 1 1 1 1 1 1
1 0 3 4 2 3 4 10 7 3 5 5 6 6 6 6 7 7 7 6 6 5 5 5 4 4 4 4 4 3 3 3 2 2 2 2 2 3 2 2 1 1 1 1 1 1 1 1 1
0 3 5 4 2 2 5 9 6 2 4 6 6 6 6 6 5 6 6 6 6 6 6 6 5 5 4 3 3 3 3 3 2 2 1 2 2 2 2 2 1 1 1 1 1 1 1 0 1
5 4 4 5 2 2 5 9 7 4 6 7 7 6 6 7 8 6 6 6 5 5 6 6 5 5 4 3 3 2 2 2 2 2 2 2 2 2 2 1 1 1 1 1 1 1 1 1 0
3 4 6 5 3 2 7 11 11 7 6 8 8 7 8 9 7 5 5 5 4 4 5 6 6 5 5 3 3 3 3 2 2 2 2 3 2 2 2 1 1 1 2 2 2 1 1 1 1
4 5 7 5 2 3 7 12 12 8 8 9 10 10 9 7 5 4 4 5 5 6 6 6 6 6 6 5 4 3 3 2 2 2 2 2 3 3 2 2 2 1 1 1 2 2 1 0 1
6 7 7 6 4 2 5 10 8 6 5 6 7 8 7 8 8 7 6 6 5 6 7 6 7 6 6 5 3 3 2 2 1 1 2 2 2 3 3 3 3 2 2 2 2 2 3 1 0
7 6 6 4 2 4 1 8 9 5 6 7 7 6 7 7 6 6 6 6 7 7 6 6 6 6 5 6 5 5 4 4 4 3 2 2 2 2 2 3 3 3 2 2 2 2 2 2 1
5 2 3 4 3 4 3 5 10 2 6 7 7 6 6 6 6 7 7 7 6 5 5 5 5 5 5 6 6 6 4 3 2 2 3 2 1 2 2 2 2 2 2 3 2 2 2 2 2
2 1 0 0 1 6 6 6 9 5 8 6 5 6 6 5 5 5 5 4 4 4 4 4 5 5 5 6 5 6 5 4 4 3 3 2 1 1 2 2 2 3 2 3 3 2 2 2 2
2 2 1 2 2 7 4 6 11 8 6 7 6 6 5 4 4 4 4 4 4 5 5 5 6 5 5 6 6 6 6 6 6 5 4 3 2 2 3 3 3 3 2 2 2 2 2 2 2
3 5 5 5 5 4 2 8 9 6 4 4 3 3 2 2 3 4 5 4 5 5 6 6 6 5 5 6 5 5 5 4 3 4 4 4 3 3 3 3 3 3 3 3 3 2 2 2 3
4 4 3 2 1 3 6 7 9 2 2 2 1 1 2 2 3 3 3 4 4 5 5 6 6 5 5 5 5 4 4 4 4 4 3 3 2 2 3 3 3 3 3 3 3 2 3 2 3
3 4 3 3 3 5 6 5 5 4 3 2 2 3 3 2 2 3 3 3 3 4 4 4 5 5 5 5 5 4 4 4 4 3 3 3 3 3 3 3 3 3 3 3 3 2 3 3 3
3 3 3 3 3 3 4 7 5 5 4 4 4 3 3 3 3 3 2 2 2 2 3 4 4 4 4 4 4 4 4 4 4 3 3 3 3 3 3 3 3 3 3 3 3 3 3 3 3
3 5 5 4 4 3 3 9 4 3 3 3 4 3 3 2 2 2 1 1 2 2 2 3 4 4 4 4 4 4 4 3 3 3 3 3 3 3 3 3 3 3 3 3 4 4 3 4 4
Wind_Direction
0 45 65 59 61 59 230 239 224 232 220 202 152 136 150 161 166 195 260 123 121 138 159 161 145 134 132 132 132 130 128 127 130 126 122 119 116 114 111 107 103 98 94 92 90 88 86 85 84
69 70 58 65 108 195 249 232 215 223 202 133 88 101 109 193 220 123 156 175 130 138 144 150 142 134 132 129 131 133 132 131 131 131 128 124 119 118 114 111 106 100 96 95 92 89 88 88 87
91 58 88 91 157 195 219 216 212 238 181 144 97 65 156 196 181 181 206 153 122 126 128 146 139 136 132 128 126 131 135 135 134 134 131 127 124 122 116 112 106 102 100 98 94 90 88 90 88
84 53 61 104 219 224 214 221 186 153 71 98 132 112 268 20 187 187 140 133 121 120 122 140 138 135 131 129 126 128 137 141 139 134 131 128 127 123 118 113 109 104 101 98 96 93 91 91 91
65 86 95 228 237 243 242 249 208 174 186 156 142 163 259 350 66 118 127 130 130 126 126 142 137 133 130 130 129 128 130 133 138 135 132 128 120 119 119 113 109 104 104 102 100 98 93 91 90
70 82 141 222 239 257 256 239 188 191 187 165 150 159 244 26 96 125 127 128 130 131 127 133 141 134 131 131 129 128 125 126 128 129 125 123 119 115 116 114 109 107 108 107 105 101 99 96 90
117 124 190 207 230 258 250 201 184 194 204 210 170 155 244 257 140 121 115 111 114 119 114 113 135 135 133 130 127 124 120 115 118 120 116 112 109 109 105 104 107 112 113 109 106 104 103 99 91
131 124 190 206 206 244 247 194 190 181 214 195 146 162 216 206 137 111 102 98 105 106 107 108 112 116 118 126 123 119 116 113 110 108 100 95 94 97 95 91 94 102 106 107 104 104 103 96 88
108 113 212 208 197 229 223 184 299 142 134 145 179 207 208 134 128 119 113 111 125 122 118 122 114 112 112 117 117 114 112 104 99 98 91 82 66 63 71 78 81 91 100 102 100 100 93 84 80
125 187 220 213 195 207 238 206 204 107 132 258 305 344 111 133 146 155 164 170 172 173 172 144 134 126 120 118 106 92 90 92 89 85 86 82 77 63 54 58 68 73 74 76 84 82 75 65 55
166 199 215 232 222 213 234 243 210 166 227 216 210 197 158 159 169 180 186 185 186 180 176 166 152 141 132 120 111 101 96 92 93 95 92 88 78 63 52 45 41 46 54 53 56 59 56 61 60
185 236 216 234 224 212 222 221 226 212 228 216 201 182 172 179 189 193 194 192 181 176 182 174 163 148 142 131 121 122 118 112 109 108 108 105 97 81 67 54 41 49 58 68 63 69 63 60 52
217 240 249 245 240 244 240 236 238 250 248 224 182 175 186 192 201 203 194 185 178 183 184 180 171 164 154 140 140 135 138 136 133 122 121 119 119 117 98 80 68 56 66 87 92 90 74 61 43
219 219 252 271 244 235 231 258 242 253 226 192 192 198 200 199 200 196 190 189 190 191 190 183 177 173 162 159 154 151 148 142 134 133 139 130 130 132 122 106 95 73 77 116 118 135 119 64 41
178 280 291 263 231 230 199 272 238 242 197 205 216 216 214 215 206 204 200 193 193 192 189 188 181 169 167 167 163 153 151 140 143 149 147 143 142 138 132 134 132 107 83 85 95 88 95 77 34
43 297 266 270 217 208 173 253 255 215 188 220 227 230 227 225 217 214 203 195 192 186 186 191 181 172 175 168 162 157 153 146 146 146 146 145 144 141 136 139 151 125 116 118 117 104 78 51 22
180 230 243 276 232 187 196 249 264 226 206 233 235 234 233 236 230 220 205 197 193 190 187 188 183 177 179 166 156 152 151 151 145 139 146 151 150 147 139 147 153 130 122 126 135 104 112 96 353
213 215 235 241 256 197 225 251 264 256 232 238 241 238 234 233 232 220 207 197 194 192 188 187 181 177 166 149 131 124 130 144 141 154 162 151 148 147 135 134 134 126 127 125 130 133 95 119 134
195 210 246 253 248 236 249 261 265 252 245 245 243 238 235 237 238 220 204 193 188 188 185 186 179 176 163 160 165 164 176 176 168 169 165 163 159 154 143 142 136 140 159 169 157 138 110 63 52
233 243 261 282 271 245 270 270 264 241 232 233 233 234 231 233 236 222 204 191 190 191 191 189 186 180 177 178 176 165 155 162 164 160 165 169 166 164 162 162 157 166 166 154 150 140 135 79 63
237 229 241 260 309 294 295 286 263 252 231 239 236 233 231 223 221 220 210 203 195 194 194 194 190 182 177 167 141 119 103 93 122 164 182 186 178 177 172 169 166 177 181 186 186 173 163 172 220
246 231 229 249 271 280 251 282 274 258 263 249 243 235 233 232 224 218 210 205 201 201 191 188 183 178 172 161 161 163 169 180 189 179 177 179 182 180 180 172 174 178 178 184 201 191 182 161 173
227 229 214 228 220 271 252 255 277 262 259 255 242 234 233 226 220 218 212 207 202 190 179 178 171 172 171 170 172 172 176 173 148 149 162 171 176 178 179 173 173 185 187 185 183 190 188 178 175
187 82 9 188 162 254 225 218 273 236 229 249 245 236 232 226 222 220 212 197 191 174 167 164 165 172 171 172 173 176 175 166 160 170 177 182 177 184 191 180 180 192 195 193 192 185 191 202 190
138 126 4 322 250 247 207 219 250 248 232 233 247 246 238 225 213 208 198 190 187 179 176 171 170 177 175 173 178 184 181 177 180 182 186 186 185 202 208 195 193 199 202 199 188 184 195 193 192
196 167 182 214 228 270 232 234 250 257 258 250 250 250 245 234 219 209 206 199 195 190 181 175 177 180 175 176 181 183 177 177 185 186 183 193 199 206 197 192 194 200 199 197 187 194 209 196 198
171 202 193 161 225 266 257 271 293 283 310 331 338 330 269 251 241 225 213 200 196 192 189 182 179 179 179 179 175 175 175 178 185 185 182 188 195 193 186 189 194 199 196 194 185 197 211 204 208
178 157 131 162 203 252 270 260 248 268 267 278 287 281 282 280 265 242 223 208 200 192 183 174 175 179 176 174 178 177 180 185 183 174 180 188 191 183 181 192 195 198 197 194 191 200 207 203 220
163 170 175 170 187 195 268 269 230 222 225 234 249 253 264 268 266 250 237 221 196 166 163 168 169 166 169 174 174 172 181 182 174 177 187 188 189 185 188 195 198 201 202 197 194 207 203 206 223
198 192 174 186 225 202 231 269 272 232 234 236 258 267 272 268 262 248 226 205 180 172 171 173 171 172 177 172 168 175 178 172 175 188 192 186 193 198 193 191 197 204 205 200 197 208 210 211 222